Weather in Aalborg

Denmark     57°02′58″N   9°54′58″E
temp.,
°C
wind,
m/s
gust,
m/s
humid.,
%
clouds,
%
prec.,
mm/h
press.,
hPa
HPBL,
m
17 september, fri
fri1723:00+12nne61088100 0.1 1013718
02:00+11nne61087100 0.1 1013871
05:00+11nne71186100 0.1 1013959
08:00+12nne71187100 0.2 1013988
11:00+12ne81286100 0.1 1014799
14:00+12ne71187100 0.1 1015772
17:00+12ne61087100 0.1 1016806
20:00+12ene61085100 0.1 1017767
18 september, sat
sat1823:00+12ene5981100 0.0 1019701
02:00+12ene5882100 0.1 1019589
05:00+12ene4882100 0.0 1019558
08:00+12ene4781100 0.1 1020549
11:00+13e4678100 0.0 1021712
14:00+14e4676100 0.0 1022728
17:00+14e4570100 0.0 1022919
20:00+13e377198 0.0 1022250
19 september, sun
sun1923:00+13e2365100 0.0 102373
02:00+13e3664100 0.0 1023227
05:00+12e4766100 0.0 1023343
08:00+10ene4876100 0.0 1023345
11:00+12e6761100 0.0 10241275
14:00+13e6754100 0.0 10241415
17:00+13e575376 0.0 10231540
20:00+12e5756100 0.0 1024623
20 september, mon
mon2023:00+11e3762100 0.0 1024405
02:00+11e4764100 0.1 1025417
05:00+11e4870100 0.1 1024426
08:00+10ene4972100 0.3 1025467
11:00+11e5763100 0.1 10251059
14:00+12e5658100 0.2 10251215
17:00+12e4562100 0.1 10241073
20:00+10ene2574100 0.4 1025147
21 september, tue
tue2123:00+10ene2377100 0.4 102573
02:00+10ene2279100 0.6 102430
05:00+10nne1180100 0.3 102412
08:00+10n1181100 0.3 102434
11:00+12nnw1166100 0.1 1025454
14:00+14wsw2252100 0.1 10251348
17:00+14w2251100 0.0 10251290
20:00+10w1165100 0.0 102510